MERIDIAN 7

导读 | 豆包AI

MERIDIAN 7(子午线7号)是独联体(CIS)于2014年10月30日发射的军事通信卫星,隶属于俄罗斯“子午线”卫星星座,主要为俄罗斯北部冰区和北极航线提供通信服务,同时支持舰队指挥与军事通信任务。它替代老化的前代卫星,补网提升极地区域通信覆盖能力,采用闪电型大椭圆轨道,可在高纬度地区实现更长时间有效通信,是俄罗斯北极战略通信体系的重要组成部分。

Basic Information
目录编号:
40296
目录名称:
MERIDIAN 7
国际标识:
2014-069A
轨道中心:
EARTH
卫星名称:
MERIDIAN 7
卫星全名:
--
卫星状态:
在轨 (已飞行4201 天)
发射日期:
2014-10-30 UTC
国别 :
俄罗斯(独联体) (CIS)
星等 :
--
Orbit Information
数据来源 国际轨道数据 AOE轨道数据
星历时间 2026-04-30T15:50:10+0800
1天前
查看轨道信息
2026-05-01T04:00:00+0800
13小时前
查看轨道信息
半长轴 26558.389km 26558.38km
偏心率 0.6665611 0.6665574
轨道倾角 63.445° 63.447°
近地点辐角 270.875° 270.871°
升交点赤经 220.051° 220.006°
平近点角 19.410° 25.399°
近地点 2477.463km 2477.558km
远地点 37883.041km 37882.928km
周期 717.897分钟 717.897分钟
每日圈数 2.005858 2.005859
Detailed Information
使用方式:
暂无
2D Orbit Map
3D Orbit Map
Orbit Altitude Analysis Chart
Orbit Inclination Analysis Chart
Orbit Comprehensive Analysis Chart
View Comprehensive Chart